Theta_e
297 296 296 295 296 295 295 295 295 296 296 295 296 296 296 296 296 297 297 297 297 297 297 297 297 298 298 298 298 298 298 298 298 298 298 298 299 299 299 299 299 299 299 299 300 304 309 312 315 318 321 323 325 327 327 328 328 328 328 327 323 319 319 321 323 324 324 321 320 321 322 322 322 323
297 296 295 295 295 295 295 295 295 295 295 295 295 295 296 296 296 295 296 296 296 296 297 297 297 297 298 298 298 298 298 298 298 298 298 298 298 299 298 299 299 299 299 299 299 300 304 309 312 315 318 321 323 325 326 327 327 328 328 328 326 322 318 320 322 323 324 323 321 321 321 322 322 322
296 295 295 295 295 295 295 295 295 295 295 295 295 295 296 296 295 295 295 295 295 296 296 297 297 297 297 297 298 298 298 298 298 298 298 298 298 298 299 299 299 299 299 299 299 299 300 304 309 313 316 319 321 323 324 325 325 325 326 328 328 325 320 318 320 322 324 324 322 321 321 322 322 322
295 295 295 294 294 295 295 295 295 295 295 295 295 295 295 295 295 295 295 295 295 295 295 296 296 296 296 297 297 297 298 298 298 298 298 298 298 298 298 299 299 299 299 299 299 299 299 300 304 309 314 316 318 321 323 324 324 324 325 326 328 328 323 319 318 320 323 324 324 322 321 321 321 322
295 294 294 294 294 294 294 295 295 295 295 294 294 294 295 295 295 295 295 295 295 295 295 295 295 295 295 296 296 296 297 297 297 297 297 298 298 298 298 298 299 299 299 299 299 299 299 299 300 304 310 314 316 318 321 323 323 323 324 324 326 327 326 322 319 318 321 324 324 324 323 321 321 321
294 294 294 294 294 294 294 294 294 294 294 294 294 294 294 295 295 294 295 295 295 295 295 295 295 295 295 295 296 296 296 297 297 297 297 297 297 298 297 298 298 299 299 299 299 299 299 299 299 300 305 310 313 315 317 320 322 322 322 323 324 325 326 325 321 318 318 322 324 324 324 323 321 321
294 294 294 294 294 294 294 294 294 294 294 294 294 293 294 294 294 294 294 295 295 295 295 295 295 295 295 295 295 295 296 296 296 297 297 297 297 297 297 297 297 298 299 299 299 299 299 299 299 299 301 306 311 313 313 316 319 321 321 322 323 323 325 326 324 319 317 320 323 324 325 323 321 321
294 294 294 293 293 294 294 294 294 294 293 293 293 293 293 294 294 294 294 295 295 295 295 295 295 295 295 295 295 295 295 295 296 296 296 296 296 296 296 296 296 296 297 298 298 299 299 299 299 299 299 301 306 310 312 313 315 319 321 321 322 322 323 324 326 322 318 318 321 323 324 324 323 321
294 295 295 294 293 293 294 293 294 293 293 293 293 293 294 294 294 294 294 294 295 295 295 295 294 294 295 295 295 295 295 295 295 296 296 296 296 296 296 296 296 295 295 297 298 298 298 299 299 299 299 299 302 306 310 312 313 315 318 321 321 322 321 321 323 324 321 319 319 321 323 324 323 322
296 296 297 295 293 293 294 293 293 293 293 293 293 294 294 294 294 294 294 294 294 294 295 294 294 294 295 295 295 295 295 295 295 295 296 296 295 295 295 295 295 295 295 295 297 298 298 298 298 299 299 299 300 302 306 310 312 312 315 318 321 322 322 321 321 322 322 320 319 318 321 323 323 322
298 298 298 296 293 293 293 293 293 293 293 293 293 294 294 294 294 294 294 294 294 294 295 294 294 294 294 294 295 294 295 295 295 295 295 296 296 295 295 295 295 295 295 295 295 296 297 297 298 298 298 299 299 300 302 307 310 311 312 316 319 321 322 322 322 321 321 321 320 317 318 321 323 322
299 298 298 297 294 292 293 292 293 293 293 293 293 294 294 294 294 294 294 294 295 294 294 294 294 294 294 294 294 294 295 295 295 295 295 295 296 295 295 295 295 295 295 295 295 295 296 296 297 298 298 299 299 299 300 303 307 310 311 313 317 320 320 321 322 322 321 321 322 319 317 319 322 322
299 298 298 297 294 292 293 293 293 293 293 293 294 293 294 294 294 294 294 294 294 294 294 294 294 294 294 294 294 294 295 295 295 295 295 295 295 295 295 295 295 295 295 295 295 295 295 295 296 297 298 298 299 299 299 300 303 308 309 311 314 319 320 319 320 322 321 321 322 320 317 317 320 322
299 298 298 297 294 292 293 293 293 293 293 293 293 293 293 293 293 294 294 294 294 294 294 294 294 294 294 294 294 294 295 295 295 295 295 295 295 295 295 295 295 295 295 294 294 294 294 294 296 297 297 298 299 299 299 299 301 304 307 308 311 316 319 319 320 321 321 322 322 321 320 318 317 320
298 298 298 296 293 292 293 293 293 293 292 292 292 292 292 293 293 293 294 294 294 294 294 294 294 294 294 294 294 295 295 295 295 295 295 295 295 295 295 295 295 294 294 294 294 294 295 294 295 296 297 298 298 298 299 299 300 301 303 305 308 313 317 319 319 320 320 322 322 321 321 321 319 317
298 298 297 294 293 293 293 293 293 293 292 292 292 292 292 292 293 293 293 294 294 294 294 294 294 294 294 294 295 295 295 295 295 295 295 295 295 295 295 295 295 294 294 294 293 294 295 294 294 296 297 297 297 298 298 299 300 300 301 302 305 309 314 317 319 320 320 321 322 320 320 322 321 318
298 297 295 293 293 293 293 293 293 292 292 291 291 291 291 292 292 293 293 293 293 293 293 293 294 295 294 294 295 295 295 295 295 295 295 295 295 295 295 294 294 294 294 293 293 294 295 295 294 295 296 297 296 297 298 298 299 300 300 301 302 305 310 314 318 319 319 320 322 321 320 321 322 321
297 296 294 293 293 294 293 293 293 292 292 291 291 291 291 291 292 292 292 293 292 293 293 294 295 295 295 295 295 295 295 295 295 295 295 295 295 295 294 294 294 294 293 293 293 294 294 294 294 294 296 296 296 296 297 298 299 299 300 300 301 302 306 311 315 318 319 320 320 321 321 320 320 322
296 294 293 293 293 293 293 293 293 292 291 290 290 291 291 291 292 292 292 292 293 293 294 295 295 296 296 295 295 295 295 295 295 295 295 295 295 294 294 293 293 294 294 293 293 293 294 294 294 294 296 296 296 296 297 297 298 299 300 300 300 301 303 307 312 316 318 320 320 320 321 320 319 320
294 293 293 293 293 293 293 293 292 291 291 290 290 291 291 292 292 292 292 293 293 294 295 296 296 296 296 296 296 296 295 295 295 295 295 295 294 294 294 293 293 294 294 294 293 293 294 295 295 295 296 296 295 296 296 296 297 299 299 300 300 301 301 303 308 313 317 319 320 320 321 321 320 319
293 293 293 293 293 293 293 293 292 291 290 290 290 291 291 291 292 292 293 293 294 295 296 296 296 296 297 296 296 296 296 295 295 295 295 295 294 293 293 293 293 294 295 295 293 293 294 295 295 295 296 296 296 296 296 296 297 299 300 300 300 301 301 301 304 310 315 318 320 321 321 321 321 320
293 293 293 293 293 293 294 292 291 291 290 290 290 290 291 291 292 292 293 293 293 294 296 296 296 296 296 296 296 295 295 295 295 295 295 294 294 293 293 293 292 294 295 295 294 293 293 295 295 294 295 296 296 296 296 297 298 299 299 300 301 301 301 301 302 306 312 317 319 321 322 321 320 321
293 293 292 292 293 293 293 292 291 291 290 290 290 290 290 291 291 292 293 293 294 294 295 296 295 296 296 296 296 295 295 295 295 295 294 294 294 293 293 293 292 292 294 295 294 293 294 295 296 295 294 294 296 297 297 297 298 299 300 301 301 301 301 301 301 303 309 316 319 321 322 322 320 320
292 292 292 292 292 293 292 291 291 291 290 290 290 290 290 291 291 292 293 293 294 295 295 295 295 296 296 296 295 295 295 295 295 295 294 293 293 293 292 292 292 292 294 295 295 294 295 296 296 296 294 294 295 297 298 298 298 299 301 302 303 303 303 301 301 302 307 314 318 320 322 323 322 320
293 292 292 292 292 292 291 291 291 291 290 290 290 290 290 291 291 292 293 293 293 294 295 295 295 296 296 296 295 295 295 295 295 294 294 293 293 293 292 292 292 292 293 295 296 296 296 296 296 295 294 294 295 296 298 299 300 301 302 304 305 306 305 303 301 302 306 312 318 320 321 322 323 321
293 293 292 292 292 292 291 291 290 290 290 291 290 290 290 291 291 292 292 293 293 294 294 295 295 295 295 295 295 294 295 295 295 294 294 293 293 292 292 292 292 293 294 296 297 297 296 296 295 295 295 294 295 296 297 299 301 302 304 305 306 308 309 306 302 302 307 314 319 321 321 322 322 322
293 293 293 293 292 292 291 291 290 290 290 290 290 291 291 291 291 291 292 292 293 294 294 294 295 295 295 295 295 294 294 295 295 295 294 293 293 292 293 293 293 293 294 296 297 297 297 296 295 295 295 295 295 296 298 300 301 303 305 307 308 310 312 309 305 306 311 317 320 321 322 323 323 322
294 293 293 293 292 292 292 291 290 290 290 290 290 291 291 291 291 291 291 292 293 293 294 294 294 295 295 295 295 294 294 295 295 295 294 293 293 292 293 293 294 294 294 296 297 297 296 296 296 296 295 295 296 297 299 301 303 304 306 308 310 312 313 313 311 310 312 316 320 322 322 322 322 321
294 294 293 293 293 292 292 291 291 290 290 290 290 290 291 291 291 290 291 291 293 294 294 294 294 295 295 295 295 294 295 295 295 295 295 294 293 293 293 293 294 294 294 295 296 296 296 296 296 296 296 296 297 297 299 301 304 305 307 309 311 313 315 316 317 316 314 315 319 322 322 322 322 322
294 294 294 294 293 293 293 292 291 291 290 290 290 290 290 290 290 290 290 291 292 293 294 294 294 295 295 295 295 294 294 295 295 295 295 294 293 293 293 293 295 295 295 295 295 296 296 296 296 297 297 297 298 299 299 301 303 305 307 310 312 314 315 317 318 319 319 318 319 321 322 321 321 322
294 294 294 294 294 294 293 293 292 291 291 291 290 290 290 290 290 290 290 290 291 293 294 294 294 295 295 295 295 294 294 295 295 295 295 295 294 293 293 293 294 295 296 296 295 295 296 295 295 296 297 298 299 300 301 302 303 305 308 313 314 314 316 317 318 319 319 320 320 321 321 321 321 321
295 295 295 294 294 294 294 293 293 292 292 292 291 290 290 290 289 289 290 290 290 292 293 294 294 294 295 295 295 294 294 294 295 295 295 295 295 294 294 293 293 293 295 296 296 296 295 295 294 294 296 297 299 301 302 304 306 306 310 313 314 314 316 317 317 318 319 319 319 319 319 319 319 319
295 295 295 294 294 294 294 294 294 293 293 292 292 291 291 290 290 289 289 289 290 291 292 293 294 294 295 295 295 295 294 294 294 294 295 295 295 295 294 294 293 292 293 294 295 296 296 295 294 294 294 296 298 301 303 304 305 307 309 312 313 315 316 315 315 316 317 318 317 317 317 317 316 316
295 295 295 295 294 294 294 294 294 294 293 293 292 292 291 291 291 290 289 289 289 290 291 293 293 294 294 295 295 295 294 294 294 294 294 294 295 295 295 294 293 293 293 293 294 295 296 296 296 295 295 295 297 299 300 301 303 305 307 310 311 312 312 312 313 313 314 315 314 314 314 315 315 314
295 295 295 295 295 294 294 294 294 294 293 293 293 292 292 292 291 291 290 289 289 289 290 292 293 294 294 295 295 295 294 294 294 294 294 294 294 295 295 295 294 293 293 293 294 294 294 295 296 297 297 297 297 297 299 300 302 304 306 307 308 308 308 310 311 311 312 312 311 312 313 313 313 312
295 295 295 295 295 295 294 294 294 294 294 293 293 293 293 293 293 293 292 291 289 289 289 291 292 293 294 294 295 295 295 294 294 294 294 294 294 294 295 295 295 295 294 294 293 293 293 293 294 294 294 295 295 295 295 298 300 303 304 305 305 306 306 307 308 308 309 310 310 311 312 312 311 311
295 295 295 295 295 295 295 294 294 294 294 294 294 294 293 293 293 293 293 292 291 290 289 290 291 293 293 294 294 294 295 294 294 294 294 294 294 294 294 295 296 296 296 295 295 294 294 293 293 292 292 292 292 292 293 295 298 301 303 303 303 304 305 306 307 306 307 308 309 309 310 310 309 308
296 296 296 296 296 295 295 295 295 295 295 294 294 294 294 294 294 294 294 293 292 291 289 289 290 292 293 293 294 294 295 295 295 294 295 295 295 294 294 294 295 296 296 297 296 296 296 295 295 294 292 292 291 291 292 294 296 298 300 301 302 303 304 305 305 305 305 306 307 307 307 307 306 306
296 296 296 296 296 296 295 295 295 295 295 295 295 294 294 294 294 294 294 294 293 292 291 289 289 290 292 293 294 294 294 294 294 294 295 295 295 295 294 294 294 294 295 296 297 297 297 297 297 296 295 293 292 292 292 294 294 295 297 299 300 301 302 303 303 303 303 304 305 305 305 305 304 304
296 296 296 296 296 296 296 295 295 295 295 295 295 295 295 294 294 294 294 294 294 293 292 291 289 289 290 292 293 294 294 294 294 294 294 295 295 295 294 294 294 294 294 295 296 296 297 297 297 297 297 296 295 295 295 296 296 296 296 297 298 299 300 300 301 301 301 302 303 304 303 303 302 303
296 296 296 296 296 296 296 296 295 295 295 295 296 295 295 295 295 294 294 294 294 294 293 292 291 289 289 291 292 293 294 294 294 294 294 295 295 295 294 294 294 294 293 294 295 295 296 296 297 298 298 298 298 298 298 298 297 297 297 297 297 298 298 299 300 300 300 300 302 303 302 301 302 302
296 296 296 296 296 296 296 296 295 295 295 295 295 296 296 296 295 295 295 294 294 294 294 293 292 291 289 289 291 293 293 293 293 293 294 294 294 294 294 294 294 294 293 293 294 294 295 295 296 297 297 298 299 299 298 297 296 296 297 297 297 298 298 299 299 299 299 300 301 301 300 301 301 300
297 297 297 297 297 296 296 296 296 295 295 295 295 295 295 296 296 296 295 295 295 294 294 293 293 292 290 289 290 291 293 293 293 293 293 293 293 294 294 295 294 294 294 293 293 293 294 294 295 295 296 296 297 297 297 296 296 296 296 296 297 298 298 298 299 300 299 300 300 300 300 300 300 299
296 297 297 297 297 297 296 296 296 295 295 295 295 295 295 295 295 296 296 295 295 294 294 294 293 293 292 291 290 290 291 293 293 293 293 293 293 293 294 294 295 294 294 294 293 293 293 293 294 294 295 295 296 296 296 296 296 296 296 296 297 297 297 298 298 299 299 299 299 299 299 300 300 299
296 297 297 297 297 297 296 296 296 295 294 294 294 294 294 294 294 295 296 296 295 295 294 294 294 293 293 292 291 290 290 291 292 293 293 293 293 293 293 294 294 295 294 294 294 293 293 293 293 293 294 294 295 295 295 295 295 295 296 296 296 296 296 297 297 297 297 296 297 298 299 299 299 298
Wind_Speed
12 11 12 12 12 12 10 11 14 16 19 20 21 21 21 20 21 23 26 30 30 29 31 32 32 30 30 31 31 30 29 30 30 30 28 27 26 27 28 27 24 22 20 19 18 17 15 14 14 16 19 19 20 23 25 30 35 37 39 40 39 39 38 38 38 37 37 35 34 35 35 35 36 35
11 11 12 12 12 11 11 13 16 18 19 20 21 21 20 19 18 18 20 26 29 30 31 32 34 34 33 32 33 33 32 32 32 32 32 31 29 28 28 28 27 24 22 22 20 18 17 16 15 15 18 19 19 20 23 29 34 36 38 41 42 41 41 40 40 39 39 38 37 37 37 36 37 37
11 12 12 11 11 12 14 15 17 18 19 20 21 21 20 19 18 19 19 23 27 29 31 33 34 36 36 35 35 35 35 35 34 34 35 35 33 30 28 27 28 27 25 24 23 21 19 18 18 17 17 19 20 20 20 24 32 36 37 39 43 44 44 42 42 42 41 41 40 39 38 39 38 38
12 12 12 12 12 14 16 17 18 18 19 21 22 21 20 19 19 21 21 23 27 28 30 33 34 36 37 37 37 38 37 37 38 37 37 38 38 36 32 29 28 28 28 26 24 23 22 20 20 20 19 19 20 21 21 21 24 32 37 38 40 44 46 45 45 44 43 43 43 42 40 40 40 39
13 13 13 14 15 16 17 18 18 19 20 22 23 22 20 19 19 21 23 24 28 30 30 32 34 36 38 38 39 41 41 40 41 42 41 40 41 41 40 36 31 30 31 29 27 25 24 23 22 21 21 21 20 21 23 22 21 26 35 40 40 42 47 49 47 46 46 45 44 45 43 41 41 41
13 14 15 17 18 18 18 18 18 20 21 23 24 23 21 19 19 20 23 25 28 32 32 33 34 36 38 39 40 41 43 43 44 45 45 44 44 44 44 43 39 34 33 33 30 27 25 24 23 23 23 24 23 22 22 24 23 23 29 40 44 43 44 47 46 47 49 47 45 46 45 43 42 42
15 17 19 19 19 18 17 18 20 21 23 24 25 24 21 20 19 20 22 25 28 32 34 34 35 37 39 40 41 42 43 44 45 46 47 47 47 47 47 47 46 42 38 36 34 31 28 26 24 23 24 25 26 24 23 24 25 24 25 34 44 47 44 44 45 47 50 48 46 47 46 44 43 44
17 20 22 21 19 17 18 20 22 23 24 26 26 25 22 20 20 21 23 25 27 31 34 35 36 38 39 41 42 43 44 45 46 46 47 48 49 50 50 50 50 48 45 41 38 35 31 27 25 23 23 26 28 28 27 26 26 26 25 28 37 47 48 45 46 48 51 51 49 48 48 47 45 45
18 20 22 22 20 18 20 21 23 25 25 26 26 25 24 22 21 22 24 26 27 30 34 37 38 39 40 42 43 43 44 46 47 47 48 49 50 52 53 53 52 51 50 48 43 39 35 30 27 24 23 24 28 30 31 29 26 26 27 27 30 40 49 50 49 49 50 51 52 50 49 49 47 46
17 18 21 22 21 20 22 23 24 25 26 26 25 24 24 23 23 24 26 27 28 30 33 37 39 40 41 42 44 44 44 44 46 48 51 52 52 53 56 57 56 54 52 50 46 41 37 34 30 26 23 22 26 30 32 32 30 27 27 27 28 33 44 50 50 50 50 50 53 53 51 51 49 47
16 17 19 22 21 21 23 25 26 26 27 26 24 23 23 24 24 25 26 27 29 31 34 37 39 41 42 42 44 45 45 44 44 45 50 55 57 56 56 57 57 56 53 50 48 45 41 38 34 30 27 23 23 28 32 34 33 31 28 28 27 28 37 46 48 49 50 49 52 55 53 51 50 48
13 15 18 21 22 22 24 25 26 26 27 27 26 25 25 25 25 26 27 28 30 32 35 38 40 41 42 43 45 46 46 45 46 46 47 51 56 59 59 56 54 54 53 51 49 46 44 43 40 36 32 27 23 24 30 34 36 34 31 30 29 27 31 38 44 47 50 50 52 55 55 52 51 50
10 13 17 20 21 21 23 24 24 25 25 26 27 27 27 27 27 26 27 28 31 33 36 38 41 42 42 44 45 47 46 46 47 47 47 50 53 56 58 57 51 48 49 49 49 48 47 47 46 42 37 31 25 23 27 32 36 37 35 32 32 30 28 32 38 45 50 52 52 54 56 55 53 53
9 11 16 19 19 20 22 22 22 23 24 24 25 26 26 27 27 27 28 28 30 33 36 39 41 42 43 44 45 46 46 46 46 48 49 51 53 53 57 58 53 46 44 48 52 53 50 49 48 46 41 35 29 25 25 29 33 37 37 36 34 32 29 30 35 43 49 53 53 54 55 56 56 55
8 11 15 18 18 19 21 21 22 22 23 24 25 25 25 24 24 26 27 28 30 32 35 38 40 42 43 43 44 45 46 47 47 48 48 50 52 52 53 56 54 49 46 48 54 57 52 47 47 47 43 37 32 27 24 26 30 35 38 38 37 35 31 29 33 41 47 52 54 55 56 57 58 57
7 11 14 16 16 17 19 20 22 23 24 25 25 25 24 23 22 22 23 26 29 32 35 37 39 40 41 43 44 44 46 48 48 49 49 49 50 51 50 51 53 51 49 49 52 56 53 47 46 46 43 38 35 30 25 24 28 32 36 39 39 38 36 32 31 36 45 51 54 55 56 57 58 59
6 10 13 13 14 16 18 20 22 24 25 26 26 26 25 24 22 22 22 23 25 29 32 35 36 37 38 41 43 44 45 48 50 50 51 50 49 49 49 49 50 50 49 47 49 53 52 46 44 46 44 40 38 34 28 25 26 30 34 37 40 41 40 37 33 33 39 48 54 56 56 57 58 58
5 8 10 12 14 16 18 21 23 24 26 26 27 26 26 26 25 25 25 25 26 27 29 31 33 34 36 39 42 44 45 46 49 50 51 51 50 49 48 47 48 49 46 43 43 49 50 45 42 45 45 42 39 35 30 25 25 28 32 35 39 42 42 41 37 34 34 40 50 56 58 59 59 59
6 6 8 11 14 16 18 21 23 24 26 26 27 27 27 28 28 28 29 29 28 28 27 28 31 34 36 38 41 44 45 46 48 49 49 50 49 49 48 46 46 47 45 39 38 44 48 44 43 46 44 41 39 35 30 26 23 25 30 33 36 41 43 43 41 38 35 35 42 52 58 59 60 59
7 7 8 11 14 16 19 22 23 23 25 26 27 28 29 30 30 30 31 29 28 27 26 27 31 33 36 38 41 44 46 47 49 49 49 49 49 48 48 47 46 47 46 40 36 40 44 41 41 42 40 37 36 33 29 26 23 23 27 31 34 37 42 45 44 42 38 35 36 44 52 57 59 59
7 7 8 10 14 16 20 22 23 23 24 26 28 29 30 31 32 33 32 30 29 28 27 28 30 33 36 39 42 45 47 49 50 50 51 51 50 49 49 47 45 46 45 40 34 34 37 37 36 36 34 32 31 29 26 23 20 20 23 27 30 34 38 43 46 44 41 38 35 37 44 52 58 60
5 6 8 11 14 16 19 22 22 22 24 26 28 30 31 33 34 34 34 33 32 31 30 30 32 33 37 41 44 46 48 50 50 50 51 51 50 48 47 45 45 44 43 39 34 33 36 36 33 33 32 30 27 24 21 16 12 12 16 20 25 30 35 40 45 45 43 41 37 36 38 46 54 59
6 7 9 11 14 16 19 21 21 21 23 26 27 29 31 33 34 34 34 34 33 33 33 34 35 37 39 43 45 47 49 51 50 49 49 49 48 47 46 43 42 43 42 38 34 34 37 35 30 29 27 26 24 20 17 13 10 7 10 14 19 24 29 35 41 44 43 41 39 37 36 40 47 55
7 9 11 13 15 16 18 20 20 20 22 25 26 28 30 32 32 33 34 33 33 33 34 35 37 39 42 45 47 49 51 52 52 50 49 47 46 45 43 41 37 37 39 37 31 31 34 32 27 24 22 22 22 18 14 12 10 6 7 9 13 17 22 29 37 41 42 41 40 39 37 38 42 50
9 11 13 15 16 17 18 19 19 20 21 23 25 27 28 29 30 31 33 33 33 33 34 36 38 40 43 46 48 50 52 53 52 51 49 47 45 43 40 38 36 35 37 35 28 25 28 26 22 19 18 19 21 18 14 11 7 3 4 6 8 11 16 25 34 38 39 39 39 39 38 38 40 47
10 12 14 15 16 17 18 19 19 19 21 22 24 26 27 28 30 31 32 33 34 34 35 37 39 41 45 48 50 51 52 53 53 52 50 48 46 42 36 33 34 35 36 31 23 18 18 16 13 13 14 16 18 18 17 11 5 0 3 4 5 7 12 22 31 34 35 35 36 37 37 36 37 42
11 13 14 15 16 17 18 18 18 19 21 22 24 25 27 28 30 32 33 33 34 35 36 37 40 43 46 49 50 51 52 53 53 53 51 49 48 43 37 33 32 32 29 23 19 17 14 11 8 7 10 12 15 15 14 10 6 3 2 3 4 7 11 18 25 29 30 30 31 32 33 34 35 38
11 12 13 14 15 16 17 18 18 19 20 22 23 25 27 29 31 33 34 35 34 34 36 38 41 44 46 49 51 51 52 53 54 53 52 50 49 45 41 37 33 31 26 21 20 21 17 12 9 7 8 12 15 15 13 11 9 6 4 2 2 8 11 14 18 22 24 25 27 28 30 32 34 36
10 11 12 13 14 16 17 18 18 18 19 21 23 25 27 29 31 34 35 35 34 34 36 38 41 43 46 48 50 51 52 53 54 54 53 53 51 49 46 41 33 30 29 26 23 22 19 16 13 11 11 12 15 16 17 16 12 8 7 5 2 9 11 11 13 15 17 19 22 23 26 29 32 34
9 10 11 13 14 16 18 19 18 18 19 20 23 25 27 29 31 33 35 35 34 33 34 37 40 42 45 48 50 51 53 54 54 55 55 55 54 52 51 47 39 31 27 26 25 23 21 18 16 14 13 13 15 16 17 18 15 12 9 6 1 7 9 8 9 10 12 13 14 16 19 22 26 30
8 9 11 13 15 16 17 18 18 18 19 20 22 25 27 29 31 32 34 34 33 31 32 34 37 40 43 47 50 52 53 54 55 55 55 56 55 54 53 52 48 39 29 24 22 22 22 22 19 15 11 7 7 7 8 10 10 8 5 3 5 6 7 6 6 7 8 8 9 10 13 15 17 21
8 9 11 13 14 15 17 18 18 19 20 21 22 24 26 28 30 32 33 33 33 32 31 32 35 39 42 46 50 52 53 54 54 55 56 56 55 54 53 53 52 48 40 31 24 20 19 22 26 29 26 17 8 5 3 2 2 4 7 7 6 6 6 5 6 6 6 6 8 8 9 10 11 14
9 10 11 13 15 16 18 19 20 21 21 21 22 23 25 28 31 33 34 35 35 33 32 32 34 37 41 45 48 51 53 53 54 55 56 57 56 55 54 52 50 50 48 43 36 29 22 20 23 30 34 30 20 13 12 13 14 13 12 9 7 8 8 7 7 6 5 6 7 8 8 8 9 9
10 11 12 14 16 17 18 20 21 21 22 22 22 23 25 27 30 33 35 36 35 34 32 32 32 35 38 42 45 48 50 52 54 54 55 56 56 55 53 51 49 49 48 46 44 40 34 29 27 30 35 36 32 27 25 26 25 21 18 15 13 13 12 11 11 10 9 6 4 7 9 9 8 9
9 11 12 14 15 17 18 19 21 22 22 21 21 22 24 27 30 33 35 36 36 35 33 32 31 33 35 39 42 45 47 49 51 54 54 55 56 55 53 50 48 48 47 46 45 45 43 40 38 38 38 39 40 39 36 33 29 26 24 22 20 18 16 14 13 12 12 11 6 6 10 12 10 10
8 10 12 14 15 17 18 18 20 21 21 21 21 21 23 25 28 31 33 34 35 35 34 32 31 31 33 36 39 41 44 46 48 51 53 54 54 54 54 52 50 48 46 45 44 43 44 45 44 44 44 44 47 47 43 37 32 29 28 26 24 22 19 16 15 15 14 14 10 8 11 13 12 12
7 9 12 13 15 16 17 18 19 20 21 21 21 20 21 23 26 29 31 32 33 33 33 32 30 30 31 33 36 38 41 43 45 47 50 52 52 51 52 53 52 50 47 45 44 43 44 44 44 44 45 45 47 47 44 40 37 35 31 27 25 24 20 17 18 20 19 17 15 14 14 14 14 13
7 9 11 13 14 16 17 18 18 19 21 22 22 21 20 21 23 26 29 31 31 32 33 32 30 29 29 30 33 36 38 40 42 44 46 48 50 50 50 50 51 50 48 46 45 44 44 44 44 44 42 41 41 43 44 45 44 39 33 29 27 25 22 21 23 24 21 19 17 16 15 16 16 14
7 9 10 12 14 15 16 17 18 19 20 21 22 22 21 20 22 24 26 29 31 31 31 32 31 29 28 28 29 32 35 37 39 41 42 44 47 48 48 48 48 48 48 47 45 44 43 44 44 43 41 39 37 38 41 45 44 39 35 33 32 30 27 24 24 24 22 20 18 17 17 18 17 12
8 9 10 12 14 15 16 16 17 18 19 20 21 22 21 21 21 22 24 27 30 30 30 30 31 30 28 27 27 28 31 34 37 38 39 40 42 45 46 47 47 46 47 46 45 44 42 41 39 37 37 36 35 35 38 42 42 41 40 38 35 32 29 26 24 24 24 21 18 17 18 17 15 12
9 9 10 12 13 15 15 16 16 17 18 20 20 22 22 21 21 22 23 25 28 29 29 29 30 30 28 26 25 26 27 30 33 36 37 37 39 41 43 45 46 46 45 45 44 43 41 38 35 33 32 32 33 36 40 43 43 41 40 38 35 32 29 27 26 25 24 20 18 19 19 17 15 15
10 10 10 12 13 14 15 16 16 17 18 19 20 21 22 23 22 22 22 23 25 27 28 27 27 28 28 26 24 23 24 27 30 32 34 35 36 38 40 42 43 44 43 42 41 40 39 38 37 37 37 37 37 39 41 41 39 37 36 35 33 31 30 28 28 27 24 21 19 19 17 16 18 20
11 11 11 12 14 15 15 16 16 17 17 19 20 21 22 23 23 22 22 23 23 25 27 27 26 26 27 27 25 23 22 23 25 28 31 32 33 34 35 37 38 39 40 40 39 39 39 39 39 39 40 40 39 39 38 36 35 35 35 33 32 30 29 28 28 28 29 28 26 23 21 19 22 25
13 12 12 13 14 15 16 16 17 17 17 18 19 20 21 23 23 23 23 23 23 23 25 26 25 25 25 25 25 24 21 21 21 23 26 28 30 31 31 32 33 36 37 38 39 39 39 39 38 38 39 39 37 36 35 34 33 34 33 32 31 31 30 29 29 31 34 33 31 30 29 29 30 29
15 14 13 14 15 16 17 17 17 17 17 17 18 19 21 22 22 22 23 23 22 22 23 24 24 24 24 24 24 24 22 20 19 19 21 23 26 28 29 29 30 32 34 36 37 37 38 37 37 37 36 35 35 34 32 32 31 31 31 31 32 32 31 31 31 34 36 35 31 29 29 30 31 30
Wind_Direction
60 56 53 49 51 50 41 32 29 28 26 22 18 14 12 10 4 358 356 356 356 357 356 353 352 352 348 345 344 343 341 341 340 338 334 330 325 322 322 321 319 314 308 303 291 279 270 262 259 258 257 258 252 246 237 226 226 230 231 230 225 218 214 217 217 214 213 210 205 204 205 204 205 205
61 58 57 54 55 49 37 33 31 29 26 20 17 14 10 9 9 3 353 352 354 354 355 356 355 353 352 348 346 345 344 343 341 340 339 337 332 327 322 320 320 318 312 308 303 291 278 266 258 254 253 255 254 249 240 229 228 234 234 231 229 223 214 215 219 217 215 212 207 206 207 207 207 207
58 56 56 54 50 43 35 33 31 28 25 20 16 13 10 8 8 8 359 352 355 357 356 357 358 356 355 353 350 346 345 345 343 341 341 340 338 333 327 323 322 321 317 311 308 300 289 275 262 253 247 248 249 248 244 236 230 234 238 234 231 228 219 214 217 219 219 215 210 208 209 209 209 209
53 53 53 50 46 38 32 31 29 25 22 19 16 12 11 9 6 10 8 357 355 0 0 357 358 358 355 354 353 349 346 346 345 343 341 340 339 337 334 329 325 324 322 317 311 305 298 288 273 259 248 244 245 244 242 239 232 229 233 235 234 233 225 217 216 218 220 218 213 210 210 211 211 211
50 51 49 45 41 35 29 26 24 22 20 17 15 12 9 8 7 9 9 0 353 356 0 358 357 358 355 353 354 351 347 346 346 344 342 340 339 338 336 333 329 326 324 321 315 308 303 296 284 269 255 244 243 244 240 239 237 229 227 229 234 237 231 223 218 216 218 220 218 213 210 211 212 212
48 46 44 40 36 30 25 22 20 19 18 14 12 11 6 3 5 8 7 360 351 350 354 356 355 356 354 351 352 351 347 346 345 343 342 340 338 337 336 333 331 328 325 322 319 313 306 300 292 278 263 250 243 244 243 240 240 237 230 226 228 235 235 229 223 215 215 219 221 217 212 211 213 213
44 40 38 34 29 24 20 18 18 16 14 11 9 8 5 360 360 5 5 359 350 345 347 351 351 351 351 349 349 349 345 343 342 340 339 338 336 335 334 332 330 328 325 322 319 316 310 302 295 284 270 257 248 245 245 244 240 238 237 229 224 227 233 234 231 221 213 215 220 218 214 212 212 214
38 36 32 27 23 19 18 17 16 13 9 8 7 6 4 0 357 1 2 358 351 344 343 347 349 348 346 345 345 345 342 340 339 337 335 334 333 332 331 330 328 327 325 322 319 317 313 305 297 288 275 262 252 247 244 244 242 237 237 236 228 225 226 230 234 227 215 213 217 218 216 214 212 213
32 30 24 19 17 16 17 17 13 10 7 4 5 5 5 4 359 358 358 355 353 348 344 345 347 347 344 341 342 342 339 336 336 335 333 332 330 330 330 328 327 326 324 322 320 317 314 310 301 291 280 266 255 250 245 243 245 241 236 238 235 229 225 225 230 229 221 215 215 217 219 216 212 212
23 21 16 11 12 14 15 14 10 7 5 3 4 4 5 5 1 356 356 355 353 351 347 346 345 345 343 339 339 340 338 335 334 333 332 330 329 329 328 327 326 325 323 322 321 319 316 313 306 297 287 272 258 252 248 244 244 244 240 238 238 233 226 224 227 227 225 221 216 215 217 218 214 212
14 13 9 5 9 13 13 12 8 5 4 4 4 2 1 0 357 354 354 354 354 351 348 347 345 343 342 339 337 338 338 335 333 333 330 328 328 328 326 325 325 324 323 322 321 320 317 314 309 303 295 282 265 254 249 245 242 243 242 238 239 235 226 223 225 226 226 224 220 215 215 218 218 215
6 3 2 2 6 11 11 9 7 7 7 7 6 3 360 355 351 351 352 352 353 351 348 347 346 342 340 339 337 337 338 335 334 333 329 325 325 325 324 323 323 323 322 320 318 317 316 313 310 306 300 291 276 259 250 245 242 241 242 239 236 234 227 222 221 224 226 226 222 217 215 217 219 218
0 356 357 1 4 7 9 9 8 10 11 9 6 3 360 355 351 349 349 350 351 350 348 347 346 342 340 340 338 337 337 335 332 331 328 323 322 323 322 321 322 321 319 318 315 313 312 310 308 306 302 296 286 268 252 245 241 239 240 240 235 230 227 222 219 220 224 225 223 220 217 216 218 219
356 353 356 359 2 5 7 8 8 8 8 7 4 0 358 356 353 350 348 349 349 348 346 345 345 342 339 339 338 336 335 335 331 329 327 323 323 323 321 320 321 320 318 315 311 309 308 307 307 306 303 299 293 279 259 246 241 238 237 238 237 231 225 221 217 217 221 223 224 224 222 219 218 219
351 351 356 358 1 6 9 8 5 3 3 2 360 357 356 356 356 354 351 349 348 347 344 344 344 341 338 338 339 337 336 335 331 328 326 324 324 324 321 319 318 317 316 313 308 305 306 305 304 304 304 302 297 288 270 250 240 238 236 235 236 233 226 220 216 216 217 218 221 225 226 223 219 219
353 351 355 360 6 10 11 8 2 359 358 358 356 355 356 355 356 354 351 349 347 345 344 343 343 342 340 339 340 340 337 335 332 329 328 327 325 322 319 317 314 312 313 312 306 303 305 305 303 302 303 303 300 294 281 261 244 237 235 234 233 232 228 222 216 214 215 214 216 221 227 227 222 219
5 356 358 7 15 14 11 7 1 356 355 354 354 354 354 354 353 350 348 346 345 344 344 342 343 345 343 340 341 342 339 336 333 331 329 328 326 322 320 317 313 311 312 311 305 302 304 305 302 300 302 303 301 296 288 272 253 240 235 233 232 232 230 225 219 214 213 213 213 216 222 227 225 221
351 359 8 15 16 14 11 7 1 356 354 353 353 353 353 353 353 350 348 347 345 346 346 344 345 349 349 345 344 345 343 338 335 333 331 330 328 324 322 318 314 312 312 311 306 300 302 305 300 298 301 302 300 297 291 279 261 245 236 232 231 231 230 227 223 217 214 213 213 213 216 222 226 226
333 359 20 19 15 15 13 7 1 356 354 354 353 354 354 354 354 353 352 350 348 348 349 349 350 354 355 352 350 349 347 341 337 336 335 334 331 328 324 321 317 314 313 313 307 298 301 305 300 298 303 303 299 297 292 283 268 250 239 233 230 230 229 228 225 220 216 214 214 214 215 216 220 225
339 1 22 21 19 19 13 7 2 357 355 356 355 354 355 354 354 355 355 353 351 350 350 350 353 357 358 357 355 354 350 345 342 340 339 339 336 332 328 325 321 317 315 317 312 300 302 308 303 300 305 304 299 297 293 284 272 255 242 234 230 229 229 228 226 223 219 216 215 215 216 214 215 219
352 14 30 25 22 20 13 6 2 359 358 359 357 356 355 355 355 356 356 354 353 352 351 350 351 355 358 0 0 358 355 351 347 344 342 341 339 336 332 327 323 318 314 319 321 309 306 313 309 302 306 307 301 300 296 287 274 258 245 237 232 229 228 227 227 225 221 219 218 217 217 214 212 215
27 47 43 31 24 18 12 6 2 1 1 0 359 358 356 355 356 356 355 354 353 353 353 351 351 353 358 2 2 360 357 354 351 348 344 342 340 337 333 328 325 320 315 321 329 318 310 314 310 302 304 306 304 305 305 300 286 262 244 234 230 228 227 226 226 225 223 221 221 221 220 216 211 212
73 64 47 35 28 19 12 7 3 2 2 1 1 360 357 356 356 356 356 355 354 354 354 354 355 357 0 3 3 0 358 356 354 352 348 345 341 338 334 331 328 322 316 322 331 320 309 310 307 297 294 296 302 312 316 314 310 283 246 231 225 223 224 224 224 223 222 222 222 223 223 219 212 210
76 60 45 37 29 20 13 8 4 2 2 1 1 1 359 357 356 356 358 359 357 356 355 356 359 360 1 4 4 1 359 358 356 353 351 350 347 341 337 334 332 325 319 323 329 319 307 304 301 293 284 282 292 309 321 319 314 289 252 237 224 219 220 221 220 220 220 220 222 223 224 225 218 211
61 51 43 35 27 19 13 9 4 2 1 0 1 3 1 359 357 357 358 360 359 358 357 358 1 2 3 6 6 2 360 359 357 354 354 356 354 348 343 340 339 335 329 327 325 314 301 296 296 293 281 274 283 300 314 317 313 275 236 236 225 220 222 218 216 216 217 217 220 222 224 227 222 214
54 48 41 33 25 18 13 9 5 2 1 360 1 3 3 1 0 0 1 2 2 1 0 2 4 5 6 7 6 3 1 360 357 356 358 360 359 358 357 355 351 346 338 332 331 323 311 307 305 296 285 277 280 294 306 310 314 246 211 234 244 238 225 216 212 212 213 215 218 221 224 225 223 218
51 47 40 31 23 17 14 11 7 4 2 360 359 2 4 5 5 4 4 5 4 3 4 6 7 8 8 8 6 3 1 1 1 2 3 4 3 5 9 12 9 1 351 347 357 0 350 346 345 314 291 280 278 289 306 313 313 296 238 242 257 234 212 205 205 207 210 213 217 220 223 223 222 219
49 43 36 27 20 16 14 12 9 6 4 1 359 0 4 7 8 7 6 7 6 5 7 9 10 11 11 10 8 5 4 5 6 7 8 8 8 11 16 19 18 14 11 12 18 18 12 7 4 341 306 286 279 287 304 313 314 313 304 295 190 186 186 188 192 199 206 212 213 216 219 220 218 216
45 40 32 23 16 14 13 13 11 8 7 3 0 1 4 8 10 9 8 7 7 7 10 11 12 12 12 12 12 11 11 11 10 9 10 10 11 15 20 24 25 24 24 25 26 20 9 356 342 326 308 292 284 291 307 316 320 323 321 320 173 164 167 170 178 188 200 208 211 213 218 223 221 215
40 37 30 20 14 13 12 11 10 8 9 8 5 4 5 9 11 11 10 8 7 7 9 10 12 13 14 15 16 17 16 15 13 12 11 12 13 17 20 23 27 30 29 30 34 32 21 4 342 319 303 290 284 289 300 305 304 307 314 321 175 155 151 151 166 183 195 203 207 207 210 219 223 220
33 31 27 18 11 10 9 8 7 7 9 10 9 7 8 10 12 12 11 9 7 6 7 9 11 14 15 16 18 19 18 18 17 16 15 15 15 18 21 23 26 29 30 30 34 40 43 40 31 20 3 332 300 298 299 293 296 313 346 65 126 134 127 138 171 190 199 205 208 210 210 212 221 227
25 22 23 16 9 7 7 7 7 6 7 10 11 10 10 12 13 13 12 11 9 6 6 8 11 14 17 18 19 19 20 20 19 19 19 19 18 21 23 23 23 25 29 32 32 33 39 45 48 48 48 52 73 103 104 101 74 65 80 101 120 122 122 150 179 187 200 206 202 208 213 205 208 225
20 15 17 13 8 7 6 5 6 5 4 6 10 12 12 13 14 13 12 12 10 7 6 8 12 15 18 19 20 20 21 22 22 22 22 22 21 23 25 25 23 23 27 31 35 38 40 43 49 52 51 55 67 88 97 94 93 97 103 114 128 130 130 137 139 140 159 182 188 191 189 182 184 198
14 10 11 9 7 6 4 2 2 3 1 1 6 11 14 14 15 13 11 11 10 8 6 8 12 16 18 18 19 20 20 22 24 25 25 25 24 24 24 24 24 26 27 31 35 40 45 50 54 56 56 57 62 71 79 82 85 91 100 106 111 112 113 111 108 112 119 119 148 180 168 156 160 163
10 5 6 6 4 4 2 360 358 359 360 359 1 7 13 15 16 14 11 10 9 8 7 8 10 16 19 18 18 19 20 22 23 25 26 27 27 26 25 24 25 28 30 32 34 37 41 45 50 52 54 55 57 59 63 68 75 80 85 88 91 91 92 94 98 106 108 100 107 158 145 128 130 139
7 1 0 1 1 0 359 359 358 357 358 357 357 2 9 14 15 13 10 9 8 8 8 8 9 13 18 18 18 19 20 21 22 23 25 26 27 28 27 26 27 29 31 33 34 37 40 41 43 44 45 47 49 49 49 55 64 68 70 76 80 81 83 89 95 97 96 92 89 101 108 107 111 115
359 358 356 356 356 357 356 356 357 357 357 356 356 358 5 11 13 12 9 8 8 8 8 8 9 12 15 17 18 18 20 21 21 22 23 24 27 28 29 28 28 29 30 32 35 38 41 42 42 42 41 42 45 44 44 50 57 58 58 63 71 75 78 86 88 84 81 80 80 81 86 94 99 99
342 349 351 350 349 351 352 352 353 355 356 356 356 357 1 7 10 10 9 7 7 8 8 7 8 11 13 16 17 17 18 19 20 21 22 23 25 28 29 30 30 30 30 31 33 37 41 43 44 45 44 43 44 43 44 48 52 52 51 53 59 64 67 71 76 78 77 77 81 84 88 93 93 90
322 335 343 344 343 345 348 348 348 350 352 354 356 357 359 3 7 8 8 6 5 6 7 7 7 9 12 15 16 16 17 17 18 19 21 22 25 27 28 29 31 31 31 32 32 35 39 42 43 46 48 49 49 50 51 53 54 53 52 51 52 53 56 61 70 77 79 79 83 90 93 93 91 91
305 320 331 336 336 340 344 344 344 346 349 350 353 356 356 359 3 5 6 5 3 4 6 7 6 6 9 12 15 16 16 17 18 18 19 21 24 26 27 29 30 31 32 33 33 34 38 41 43 45 49 53 57 60 62 61 58 55 53 51 50 51 53 56 62 69 73 74 78 85 88 90 93 99
299 309 320 327 329 332 338 340 340 342 345 347 351 354 354 356 358 0 2 3 2 1 3 6 6 6 7 10 13 14 14 15 17 17 18 20 22 24 26 28 29 30 31 32 34 35 37 40 42 45 48 52 55 57 57 56 55 53 52 51 50 50 53 55 57 62 67 68 69 76 83 89 94 97
302 306 313 320 323 325 331 336 336 337 340 343 347 350 352 354 355 356 358 0 1 0 1 4 5 5 5 7 10 12 12 13 15 17 17 18 20 22 25 27 29 30 31 32 33 35 36 38 40 43 46 47 48 51 55 56 56 56 55 54 53 52 53 56 58 61 64 62 60 68 81 94 97 95
302 304 309 315 318 319 324 330 332 332 332 335 340 345 348 350 353 354 355 357 359 359 359 1 3 4 4 6 7 9 11 12 12 14 17 18 19 20 22 24 27 29 31 33 33 33 34 36 38 41 43 45 47 52 58 60 60 60 60 59 59 58 57 59 62 66 68 66 64 67 75 84 91 94
295 297 302 309 312 314 318 323 327 328 326 327 332 337 340 344 349 352 353 354 356 357 356 358 0 2 3 4 5 6 9 11 10 11 13 16 18 21 21 21 24 27 30 33 34 34 34 35 37 39 43 45 47 51 56 60 62 64 65 65 65 66 66 68 71 74 75 73 72 73 75 78 83 90
289 290 296 301 304 307 312 318 323 325 324 322 325 330 334 337 342 348 350 351 353 354 355 355 357 359 1 3 3 4 5 7 8 9 10 11 14 18 21 21 21 24 27 30 33 34 35 36 37 39 42 45 46 49 54 57 60 63 64 65 67 69 70 71 73 75 75 74 74 76 80 83 87 91